CET,Max TemperatureF,Mean TemperatureF,Min TemperatureF,Max Dew PointF,MeanDew PointF,Min DewpointF,Max Humidity, Mean Humidity, Min Humidity, Max Sea Level PressureIn, Mean Sea Level PressureIn, Min Sea Level PressureIn, Max VisibilityMiles, Mean VisibilityMiles, Min VisibilityMiles, Max Wind SpeedMPH, Mean Wind SpeedMPH, Max Gust SpeedMPH,PrecipitationIn, CloudCover, Events, WindDirDegrees
2012-11-1,44,40,35,39,38,36,100,88,76,29.55,29.36,29.27,14,6,4,12,7,,0.08,6,Rain,137
2012-11-2,50,42,33,39,37,34,93,77,52,29.73,29.60,29.42,7,6,4,21,11,32,0.00,4,Rain,200
2012-11-3,56,48,39,45,40,36,81,72,54,29.74,29.67,29.62,6,6,6,22,13,,0.00,3,Rain,195
2012-11-4,52,47,42,45,43,41,100,85,60,29.80,29.67,29.50,19,7,4,13,5,,0.01,4,Rain,189
2012-11-5,48,44,39,45,41,36,93,87,73,29.71,29.58,29.50,6,6,4,17,11,,0.00,4,Rain,231
2012-11-6,44,40,35,39,35,32,93,86,68,30.09,29.91,29.71,19,7,4,17,12,,0.03,5,Rain,250
2012-11-7,46,40,34,41,37,34,93,83,67,30.25,30.11,29.98,19,6,4,29,22,41,0.00,5,Rain,235
2012-11-8,46,44,41,41,39,37,87,81,69,30.26,30.11,30.04,19,7,6,20,13,,0.00,6,Rain,231
2012-11-9,49,41,33,41,38,32,93,83,64,30.12,30.06,29.98,19,7,6,15,11,,0.00,3,,207
2012-11-10,46,38,31,39,36,30,100,88,67,30.02,29.84,29.74,9,5,2,13,6,,0.00,1,,106
2012-11-11,44,40,37,43,40,36,100,94,87,30.06,29.87,29.74,4,2,1,9,5,,0.03,6,Rain,319
2012-11-12,47,43,39,46,43,39,100,97,87,30.36,30.23,30.06,5,2,0,8,5,,0.00,6,Fog-Rain,242
2012-11-13,47,41,35,41,35,30,93,77,48,30.56,30.47,30.36,12,6,4,7,3,,0.00,5,Rain,50
2012-11-14,35,30,24,34,29,25,100,96,87,30.58,30.45,30.36,5,1,0,5,2,,0.00,4,Fog,318
2012-11-15,35,30,25,34,32,27,100,97,87,30.44,30.26,30.18,3,1,0,6,3,,0.00,8,Fog,30
2012-11-16,41,37,33,36,35,33,100,92,81,30.24,30.14,30.09,6,3,1,8,4,,0.00,8,,134
2012-11-17,40,38,37,36,34,34,87,82,73,30.11,30.00,29.95,7,6,6,8,6,,0.00,8,,163
2012-11-18,40,37,34,36,34,32,93,88,80,30.04,29.97,29.92,6,5,2,9,6,,0.00,7,Rain,186
2012-11-19,45,38,32,39,36,30,100,92,72,30.19,30.10,30.04,5,3,0,6,3,,0.00,5,Fog,28
2012-11-20,46,38,30,43,38,32,100,96,80,30.20,30.14,30.12,4,1,0,6,3,,0.00,7,Fog,360
2012-11-21,43,38,32,43,40,36,100,96,87,30.20,30.11,30.06,6,3,0,9,5,,0.00,8,Fog-Rain,118
2012-11-22,47,43,39,41,39,36,93,88,78,30.30,30.22,30.12,9,6,5,13,9,,0.00,6,,231
2012-11-23,46,40,35,43,39,36,100,94,78,30.27,30.18,30.15,6,3,0,8,3,,0.00,7,Fog,166
2012-11-24,50,42,35,41,38,36,100,91,63,30.22,30.13,30.06,6,3,0,8,5,,0.00,4,Fog,150
2012-11-25,50,43,36,43,39,36,100,86,69,30.13,30.02,29.98,9,5,1,15,6,,0.00,6,Fog,159
2012-11-26,45,38,31,41,37,28,93,84,72,30.04,29.90,29.74,19,7,4,17,8,,0.00,8,Rain,134
2012-11-27,42,42,41,41,41,39,100,96,89,29.79,29.72,29.68,6,3,1,7,4,,0.00,8,Rain,101
2012-11-28,43,42,41,43,42,41,100,98,93,29.68,29.51,29.36,4,1,0,14,4,,0.01,8,Fog-Rain,12
2012-11-29,38,35,32,43,35,32,100,97,93,29.47,29.27,29.15,6,4,1,18,13,,0.31,8,Rain-Snow,306
2012-11-30,34,32,30,30,30,28,93,89,80,29.86,29.67,29.50,16,7,6,15,11,,0.00,5,Snow,255